Погода в Стремутке

Россия / Псковская область     57°39′14″N   28°19′37″E
темп.,
°C
ветер,
м/с
пор.,
м/с
влажн.,
%
обл.,
%
осадки,
мм/ч
давл.,
гПа
погр.,
м
23 мая, пн
пн2300:00+4ссв36525 0.0 1012112
03:00+2св12625 0.0 101311
06:00+4с12625 0.0 101347
09:00+10сз354566 0.0 1013465
12:00+13ссз584830 0.0 10131174
15:00+16сз584015 0.0 10121339
18:00+17ссз584413 0.0 10111614
21:00+12с36645 0.0 1011111
24 мая, вт
вт2400:00+8ссз22745 0.0 101223
03:00+7ссз35745 0.0 101395
06:00+8зсз38795 0.0 1013187
09:00+13сз48505 0.0 1014464
12:00+17ссз58405 0.0 1014825
15:00+18сз57381 0.0 10131009
18:00+18сз47431 0.0 1013747
21:00+13с23560 0.0 101337
25 мая, ср
ср2500:00+9вюв37734 0.0 1015131
03:00+6юв35627 0.0 101679
06:00+6юв25566 0.0 1016111
09:00+14ююв34456 0.0 1015378
12:00+19ю3344100 0.0 1014884
15:00+21ю4541100 0.0 10122013
18:00+19ююв464993 0.0 1011689
21:00+15юз2266100 0.0 101030
26 мая, чт
чт2600:00+13зсз2375100 0.0 100968
03:00+12всв1196100 1.5 100729
06:00+11сз61197100 9.2 1006623
09:00+12сз578684 10.0 1005724
12:00+14з567476 0.8 10041128
15:00+17з575979 1.4 10031678
18:00+14з588045 2.3 1001857
21:00+11з499053 4.3 1001361
27 мая, пт
пт2700:00+8з39976 0.4 1001247
03:00+8зюз3109890 0.4 1001335
06:00+9зюз5139269 0.3 1001595
09:00+10зюз61188100 0.4 1001908
12:00+10зюз51186100 0.3 10011001
15:00+14з596799 1.4 10001695
18:00+15зюз3852100 0.6 9981868
21:00+11ююз3866100 0.7 996240